CAPE
38 33 37 36 41 95 148 229 301 372 492 554 594 887 1189 1374 1041 1112 2231 1938 1493 506 38 25 25 500 9 0 0 0 0 0 0 0 0 0 0 0 0 0 0 0 0
34 58 54 47 42 59 115 170 217 304 370 423 501 631 764 885 1337 1885 2199 1769 1353 814 456 133 236 1 0 0 0 0 0 0 0 0 0 0 0 0 0 0 0 0 0
25 70 91 92 100 113 179 253 320 413 511 648 906 1207 1462 1644 1869 2362 2368 1506 946 525 196 0 61 0 0 0 0 0 0 0 0 0 0 0 0 0 0 0 0 0 0
38 67 95 128 164 219 284 389 519 639 827 1005 1255 1522 1724 1998 2455 2705 1752 1145 501 33 2 72 0 0 0 0 0 0 0 0 0 0 0 0 0 0 0 0 0 0 0
63 109 133 157 219 286 410 576 745 909 1011 1214 1501 1728 2092 2593 2823 2264 1320 784 298 2 0 0 0 0 0 0 0 0 0 0 0 0 0 0 0 0 0 0 0 0 0
115 142 177 212 267 329 396 479 588 761 1054 1431 1683 1950 2497 3042 2778 1728 1000 465 0 0 0 0 0 0 0 0 0 0 0 0 0 0 0 0 0 0 0 0 0 0 0
190 241 273 330 434 519 579 680 794 1043 1438 1659 1926 2437 2940 2625 1821 1102 393 0 0 0 0 0 0 0 0 0 0 0 0 0 0 0 0 0 0 0 0 0 0 0 0
272 318 391 457 525 618 728 826 1028 1347 1553 1838 2255 2884 2611 1602 954 368 3 0 0 0 0 0 0 0 0 0 0 0 0 0 0 0 0 0 0 0 0 0 0 0 0
377 421 490 560 575 671 764 907 1193 1449 1792 2107 2665 2497 2168 923 304 21 0 0 0 0 0 0 0 0 0 0 0 0 0 0 0 0 0 0 0 0 0 0 0 0 0
572 532 611 784 830 834 931 1094 1348 1600 1930 2312 2479 2090 1404 648 40 0 0 0 0 0 0 0 0 0 0 0 0 0 0 0 0 0 0 0 0 0 0 0 0 0 0
449 596 764 926 964 1002 1077 1273 1492 1774 2055 2338 2167 1422 885 293 10 0 0 0 0 0 0 0 0 0 0 0 0 0 0 0 0 0 0 0 0 0 0 0 0 0 0
313 470 646 776 902 1014 1117 1337 1588 1709 1951 2038 1451 912 296 39 0 0 0 0 0 0 0 0 0 0 0 0 0 0 0 0 0 0 0 0 0 0 0 0 0 0 0
435 468 483 574 758 1032 1167 1390 1507 1701 1843 1731 1199 807 240 8 0 0 0 0 0 0 0 0 0 0 0 0 0 0 0 0 0 0 0 0 0 0 0 0 0 0 0
766 792 873 968 1142 1426 1628 1648 1595 1717 1783 1700 1059 633 195 12 0 0 0 0 0 0 0 0 0 0 0 0 0 0 0 0 0 0 0 0 0 0 0 0 0 0 0
1910 1983 2096 2138 2155 2142 2012 1900 1817 1770 1893 1875 1138 687 378 93 1 0 0 0 0 0 0 0 0 0 0 0 0 0 0 0 0 0 0 0 0 0 0 0 0 0 0
1688 1861 2098 2295 2460 1967 1710 1583 679 1473 1342 1196 975 865 236 196 0 0 0 0 0 0 0 0 0 0 0 0 0 0 0 0 0 0 0 0 0 0 0 0 0 0 0
2250 2347 2517 2588 2139 1987 1894 2096 1971 456 327 425 352 313 338 66 0 0 0 0 0 0 0 0 0 0 0 0 0 0 0 0 0 0 0 0 0 0 0 0 0 0 0
2824 2782 2745 2455 2151 1975 2015 2080 1919 1892 1605 1013 10 8 65 15 0 0 0 0 0 0 0 0 0 0 0 0 0 0 0 0 0 0 0 0 0 0 0 0 0 0 0
2981 2767 2638 2436 2172 1956 1899 1870 1863 1640 1364 699 67 1 0 0 0 0 0 0 0 0 0 0 0 0 0 0 0 0 0 0 0 0 0 0 0 0 0 0 0 0 0
2558 2667 2618 2433 2059 1969 1882 1850 1648 1490 1012 462 234 151 0 0 0 0 0 0 0 0 0 0 0 0 0 0 0 0 0 0 0 0 0 0 0 0 0 0 0 0 0
2040 2027 2065 2183 2156 1874 1540 1507 1511 1233 888 447 152 0 0 0 0 0 0 0 0 0 0 0 0 0 0 0 0 0 0 0 0 0 0 0 0 0 0 0 0 0 0
1256 1710 1624 1706 1590 1678 1544 1277 1138 1009 833 475 64 0 0 0 0 0 0 0 0 0 0 0 0 0 0 0 0 0 0 0 0 0 0 0 0 0 0 0 0 0 0
41 841 1087 1109 1148 1150 1084 994 737 727 741 316 18 0 0 0 0 0 0 0 0 0 0 0 0 0 0 0 0 0 0 0 0 0 0 0 0 0 0 0 0 0 0
0 0 264 1037 954 919 886 866 529 345 301 112 0 0 0 0 0 0 0 0 0 0 0 0 0 0 0 0 0 0 0 0 0 0 0 0 0 0 0 0 0 0 0
0 0 0 152 746 816 749 648 461 164 71 1 1 0 0 0 0 0 0 0 0 0 0 0 0 0 0 0 0 0 0 0 0 0 0 0 0 0 0 0 0 0 0
0 2 1 2 43 497 757 628 407 150 4 0 0 0 0 0 0 0 0 0 0 0 0 0 0 0 0 0 0 0 0 0 0 0 0 0 0 0 0 0 0 0 0
CIN
-498 -481 -435 -407 -380 -365 -358 -369 -355 -352 -342 -342 -353 -298 -214 -154 -179 -164 -34 -47 -60 -235 -445 -390 -91 -115 -79 0 0 0 0 0 0 0 0 0 0 0 0 0 0 0 0
-497 -471 -432 -411 -441 -398 -409 -419 -443 -425 -429 -406 -408 -379 -341 -282 -167 -78 -28 -70 -101 -169 -226 -314 -212 -93 0 0 0 0 0 0 0 0 0 0 0 0 0 0 0 0 0
-622 -506 -441 -411 -395 -393 -419 -436 -460 -436 -408 -386 -326 -273 -219 -173 -110 -38 -31 -117 -169 -238 -316 0 -267 0 0 0 0 0 0 0 0 0 0 0 0 0 0 0 0 0 0
-643 -567 -468 -420 -389 -379 -398 -438 -433 -414 -375 -336 -289 -242 -202 -139 -55 -17 -104 -167 -265 -521 -239 -335 0 0 0 0 0 0 0 0 0 0 0 0 0 0 0 0 0 0 0
-662 -548 -488 -451 -447 -433 -436 -434 -422 -399 -365 -332 -280 -231 -155 -63 -32 -61 -187 -229 -334 -196 0 0 0 0 0 0 0 0 0 0 0 0 0 0 0 0 0 0 0 0 0
-580 -504 -508 -495 -489 -470 -466 -462 -492 -440 -394 -327 -266 -203 -97 -21 -56 -152 -235 -292 0 0 0 0 0 0 0 0 0 0 0 0 0 0 0 0 0 0 0 0 0 0 0
-524 -504 -505 -500 -480 -490 -469 -482 -433 -403 -343 -299 -234 -152 -53 -89 -156 -243 -363 0 0 0 0 0 0 0 0 0 0 0 0 0 0 0 0 0 0 0 0 0 0 0 0
-470 -491 -505 -480 -489 -525 -489 -453 -427 -388 -340 -279 -197 -99 -111 -227 -330 -440 -36 0 0 0 0 0 0 0 0 0 0 0 0 0 0 0 0 0 0 0 0 0 0 0 0
-479 -462 -472 -499 -512 -531 -473 -452 -446 -389 -332 -257 -154 -157 -170 -379 -539 -344 0 0 0 0 0 0 0 0 0 0 0 0 0 0 0 0 0 0 0 0 0 0 0 0 0
-466 -446 -474 -485 -473 -459 -441 -445 -437 -398 -320 -252 -196 -224 -317 -474 -798 0 0 0 0 0 0 0 0 0 0 0 0 0 0 0 0 0 0 0 0 0 0 0 0 0 0
-429 -435 -458 -466 -455 -456 -488 -469 -431 -388 -331 -255 -246 -352 -443 -635 -616 0 0 0 0 0 0 0 0 0 0 0 0 0 0 0 0 0 0 0 0 0 0 0 0 0 0
-461 -452 -456 -463 -499 -507 -485 -477 -446 -413 -341 -300 -383 -470 -673 -926 0 0 0 0 0 0 0 0 0 0 0 0 0 0 0 0 0 0 0 0 0 0 0 0 0 0 0
-431 -431 -487 -545 -571 -535 -501 -473 -467 -417 -356 -339 -426 -505 -708 -1003 0 0 0 0 0 0 0 0 0 0 0 0 0 0 0 0 0 0 0 0 0 0 0 0 0 0 0
-393 -431 -482 -508 -520 -533 -514 -498 -486 -425 -359 -340 -459 -566 -764 -956 0 0 0 0 0 0 0 0 0 0 0 0 0 0 0 0 0 0 0 0 0 0 0 0 0 0 0
-337 -363 -380 -406 -417 -435 -457 -455 -444 -432 -369 -335 -460 -562 -656 -838 -291 0 0 0 0 0 0 0 0 0 0 0 0 0 0 0 0 0 0 0 0 0 0 0 0 0 0
-374 -385 -387 -387 -391 -478 -504 -515 -770 -485 -474 -483 -510 -481 -750 -710 0 0 0 0 0 0 0 0 0 0 0 0 0 0 0 0 0 0 0 0 0 0 0 0 0 0 0
-286 -321 -319 -328 -412 -432 -420 -366 -358 -809 -862 -739 -738 -721 -640 -921 0 0 0 0 0 0 0 0 0 0 0 0 0 0 0 0 0 0 0 0 0 0 0 0 0 0 0
-223 -243 -252 -299 -344 -378 -365 -335 -337 -323 -353 -517 -165 -848 -908 -961 0 0 0 0 0 0 0 0 0 0 0 0 0 0 0 0 0 0 0 0 0 0 0 0 0 0 0
-153 -170 -201 -229 -263 -302 -316 -305 -287 -342 -423 -586 -808 -253 0 0 0 0 0 0 0 0 0 0 0 0 0 0 0 0 0 0 0 0 0 0 0 0 0 0 0 0 0
-145 -121 -114 -128 -192 -224 -235 -233 -260 -313 -447 -613 -720 -780 0 0 0 0 0 0 0 0 0 0 0 0 0 0 0 0 0 0 0 0 0 0 0 0 0 0 0 0 0
-151 -142 -121 -92 -94 -141 -224 -224 -199 -252 -357 -545 -741 0 0 0 0 0 0 0 0 0 0 0 0 0 0 0 0 0 0 0 0 0 0 0 0 0 0 0 0 0 0
-197 -89 -102 -76 -80 -62 -75 -155 -202 -223 -268 -390 -779 0 0 0 0 0 0 0 0 0 0 0 0 0 0 0 0 0 0 0 0 0 0 0 0 0 0 0 0 0 0
-241 -186 -107 -82 -70 -79 -108 -105 -157 -172 -186 -341 -750 0 0 0 0 0 0 0 0 0 0 0 0 0 0 0 0 0 0 0 0 0 0 0 0 0 0 0 0 0 0
0 -29 -229 -52 -66 -72 -91 -100 -176 -212 -246 -404 0 0 0 0 0 0 0 0 0 0 0 0 0 0 0 0 0 0 0 0 0 0 0 0 0 0 0 0 0 0 0
0 0 0 -200 -48 -45 -74 -110 -137 -243 -334 -1 0 0 0 0 0 0 0 0 0 0 0 0 0 0 0 0 0 0 0 0 0 0 0 0 0 0 0 0 0 0 0
0 0 0 0 -138 -62 -28 -78 -120 -196 -84 0 0 0 0 0 0 0 0 0 0 0 0 0 0 0 0 0 0 0 0 0 0 0 0 0 0 0 0 0 0 0 0
Wind_Speed
23 23 24 26 24 21 22 22 21 22 20 18 16 14 11 9 10 7 5 11 10 9 9 11 15 17 20 22 22 23 22 20 23 24 23 25 27 31 32 32 31 30 31
23 23 25 24 22 24 24 24 22 21 20 17 12 11 9 7 5 3 4 11 12 11 11 14 16 18 20 22 23 23 23 23 23 25 24 26 28 33 32 32 30 27 26
18 20 24 25 21 26 26 25 24 21 19 15 9 6 5 4 2 3 8 12 14 14 15 16 17 19 21 22 24 25 25 25 26 25 27 26 27 28 27 24 19 19 19
16 19 22 26 25 25 27 26 25 23 18 14 9 5 2 1 2 6 12 14 16 18 19 19 19 19 21 22 23 24 25 27 28 29 30 29 26 23 26 24 23 22 19
11 16 23 26 26 25 29 28 26 22 18 13 9 5 3 4 5 9 13 15 17 19 20 21 21 22 23 23 23 24 26 28 28 30 30 29 25 26 28 26 24 16 19
10 18 21 24 25 28 30 29 26 22 17 13 9 5 5 6 9 13 15 16 18 20 21 22 22 23 24 24 24 25 26 27 29 29 29 29 27 27 27 27 18 22 22
9 13 18 22 29 31 32 29 25 21 17 12 8 6 8 12 14 15 17 18 19 19 20 21 22 22 23 24 24 25 26 26 26 27 29 29 28 29 27 29 22 21 21
9 10 14 23 33 33 31 28 24 20 16 11 8 9 12 13 15 16 18 19 19 20 20 20 21 22 22 22 23 24 25 25 25 27 28 28 28 29 30 28 23 20 22
10 12 17 31 37 32 30 26 22 18 13 10 9 11 13 14 15 17 18 18 19 19 19 19 20 20 20 21 23 24 25 25 25 26 27 27 28 29 30 30 27 27 26
10 16 10 33 36 33 29 24 19 14 11 9 10 11 12 13 14 16 16 17 18 18 18 19 19 19 20 21 22 23 26 26 24 24 24 25 26 26 28 33 28 29 28
13 17 24 34 35 32 28 21 12 6 7 8 9 10 11 12 13 15 15 16 16 17 17 18 18 19 20 21 22 23 24 25 25 25 26 28 30 30 27 27 28 27 28
22 22 29 34 33 28 22 11 4 3 4 5 7 9 10 11 13 14 14 15 16 16 17 18 19 20 20 21 21 23 25 26 27 27 29 29 30 29 28 29 28 28 27
20 26 29 32 26 13 7 1 3 2 2 2 3 5 7 9 12 13 14 15 15 16 18 20 21 21 20 21 22 23 24 26 27 29 28 28 26 25 25 27 30 34 32
24 28 27 21 16 11 9 7 5 4 3 1 2 4 6 9 12 13 13 14 15 17 18 19 20 21 22 22 22 22 23 25 27 28 28 27 26 28 29 28 29 30 33
21 19 18 18 15 14 12 10 6 3 2 3 4 7 9 10 12 13 14 13 14 15 17 18 18 19 20 20 21 21 23 24 26 26 28 29 30 30 32 30 31 31 33
16 16 17 16 15 14 13 12 14 8 2 2 6 7 7 10 13 14 14 13 14 16 15 16 16 17 18 19 20 21 21 23 24 25 26 28 29 30 31 32 32 32 33
16 16 16 15 14 13 14 12 10 13 11 11 1 4 7 11 13 14 13 14 14 13 12 14 15 16 17 18 18 19 20 21 23 24 25 26 27 28 29 31 31 32 36
18 16 17 18 17 19 18 17 14 11 11 5 5 3 6 11 12 13 13 12 11 9 11 12 14 15 16 17 17 18 19 20 21 22 24 24 25 27 29 30 32 33 32
20 20 20 20 21 19 16 17 15 11 12 9 7 7 4 6 11 12 13 9 10 9 10 11 13 14 15 16 16 17 18 19 20 21 22 23 24 26 28 29 31 33 33
24 24 24 24 25 23 23 22 20 17 14 12 11 10 9 7 10 10 11 8 8 7 9 10 12 13 14 15 16 17 17 19 20 20 21 22 24 26 27 28 28 31 33
29 28 28 28 29 28 28 26 23 20 20 18 16 13 14 14 13 12 13 10 9 7 8 9 11 11 13 14 15 16 16 17 19 20 20 21 22 24 24 25 26 26 28
31 32 31 32 32 28 26 26 22 22 21 24 22 18 16 15 15 14 14 11 9 8 7 8 10 10 12 14 15 16 16 16 17 19 19 20 21 21 23 24 24 25 24
32 32 31 29 28 27 26 24 23 21 21 23 23 21 19 17 16 16 15 12 10 8 6 6 8 8 10 12 14 17 17 16 17 17 18 18 19 20 20 21 22 22 23
30 30 31 29 28 26 24 22 21 22 22 22 21 21 20 19 17 17 16 14 11 9 8 7 7 9 10 12 14 16 17 16 15 17 17 17 17 18 18 18 19 20 20
30 31 30 30 28 25 23 22 21 22 22 21 20 20 20 19 19 18 18 16 14 13 11 10 7 9 12 13 15 17 18 18 16 16 16 16 16 17 16 17 17 18 18
30 30 31 30 30 29 24 22 21 20 20 19 18 18 19 20 21 21 20 19 17 16 13 12 10 10 12 12 14 17 18 19 17 17 17 16 15 14 15 15 16 16 17
Wind_Direction
179 182 186 191 189 186 190 193 193 203 205 212 222 230 239 251 268 290 318 22 25 33 35 27 25 32 31 32 30 26 25 24 19 19 26 23 18 11 7 4 2 360 355
181 180 184 185 183 187 189 193 194 200 204 209 210 226 238 250 269 311 347 29 37 41 41 33 37 40 37 34 29 30 31 31 30 26 26 24 22 16 16 13 12 13 8
174 175 180 183 177 186 190 192 194 196 199 197 192 206 229 243 274 16 34 42 46 47 42 48 46 45 40 37 37 37 39 41 39 34 29 28 26 27 26 28 29 28 27
172 174 178 182 180 181 187 190 194 197 196 195 190 192 185 156 60 52 50 51 52 50 51 52 54 49 46 45 45 47 47 42 38 35 32 31 37 36 32 29 25 28 33
175 172 177 178 177 174 185 191 197 197 196 191 183 163 125 77 66 65 59 59 57 56 55 57 52 50 52 53 55 54 48 41 39 37 36 38 42 36 32 28 27 30 44
178 170 169 169 170 175 186 193 194 196 191 180 171 147 91 67 71 67 64 66 63 62 61 58 53 53 57 59 61 57 50 46 42 41 42 43 44 38 35 31 35 41 51
188 166 161 161 170 178 190 190 189 188 182 174 159 109 66 59 69 69 70 71 68 69 69 63 57 58 62 63 62 55 51 51 52 49 47 48 45 41 39 35 42 53 64
202 174 159 159 175 179 183 184 183 179 174 160 128 79 61 65 75 73 73 72 72 73 72 66 63 62 66 65 62 56 54 53 55 55 54 53 50 44 44 44 51 60 71
207 168 154 164 188 176 179 180 175 168 159 133 95 69 68 75 81 80 76 73 74 73 73 68 68 67 71 71 63 59 56 55 63 61 59 57 52 49 50 51 56 61 66
191 155 172 212 201 188 183 174 164 153 139 101 76 71 76 79 89 87 81 78 77 75 71 69 72 74 77 74 68 63 57 58 66 65 63 59 57 57 58 56 60 63 61
218 225 225 212 201 195 184 170 149 113 87 77 67 66 74 85 94 93 85 85 83 79 74 72 75 80 81 76 71 67 64 66 68 70 68 65 62 61 63 62 61 66 65
226 229 225 216 194 186 176 154 117 82 76 58 59 54 64 82 98 99 92 90 89 81 80 77 79 82 80 76 76 72 71 68 69 70 69 67 64 63 64 65 68 69 72
235 234 232 193 180 163 162 252 324 338 349 38 66 67 83 84 104 106 97 95 88 80 81 80 79 77 78 78 81 76 75 71 70 68 71 70 71 72 69 72 71 67 75
238 237 240 258 271 285 295 303 311 314 323 17 98 95 93 110 118 112 100 94 85 80 83 79 76 76 77 78 80 80 78 75 74 73 74 77 79 73 70 74 77 75 74
245 254 263 271 280 288 297 302 303 292 179 145 135 132 132 136 138 126 116 106 97 94 87 80 78 82 84 84 82 83 84 81 77 79 77 76 77 75 71 73 77 77 77
255 264 272 280 286 292 293 306 311 319 307 186 150 144 137 137 137 132 122 111 105 103 90 88 85 91 94 94 89 89 91 86 83 83 82 81 79 78 77 74 77 79 81
267 275 282 288 293 296 294 298 304 308 309 297 233 157 146 145 142 137 128 118 116 104 92 97 93 97 102 100 97 96 99 98 90 85 86 84 82 81 81 80 81 84 83
281 288 289 290 295 288 290 293 294 286 296 302 300 259 168 152 150 143 133 116 117 102 103 106 102 103 107 105 105 103 100 104 100 93 89 89 88 85 84 85 85 87 91
286 290 294 295 294 296 296 291 293 292 288 288 271 273 250 176 162 156 153 143 136 128 118 115 111 111 114 113 111 110 108 112 111 104 98 95 93 89 87 91 89 88 91
290 291 292 293 291 291 290 288 285 282 281 268 262 247 228 216 191 180 172 164 149 138 129 128 122 116 118 119 120 117 114 117 119 111 106 102 99 95 92 94 96 90 89
293 291 291 292 289 289 288 286 283 278 275 270 262 248 218 216 210 199 184 182 169 159 146 139 132 127 126 125 122 124 122 120 124 119 110 108 106 101 101 100 102 102 97
298 291 291 291 290 290 290 289 285 278 274 271 265 254 221 231 224 208 196 197 185 176 164 152 144 138 139 137 134 135 134 128 127 128 121 114 112 108 104 105 104 109 114
307 303 297 296 293 292 290 287 286 284 279 272 262 251 234 234 230 211 210 210 202 193 194 171 156 145 141 143 143 147 145 143 140 135 130 125 121 117 113 110 109 107 115
313 314 307 300 294 292 291 291 288 288 285 275 263 251 237 234 231 223 222 223 218 212 215 196 179 165 157 153 153 153 154 146 141 145 142 135 130 129 122 118 117 113 108
312 311 310 303 303 294 292 291 292 291 289 279 268 255 244 237 237 236 235 232 223 218 213 210 204 183 170 166 164 162 161 158 152 149 149 147 142 140 135 133 127 126 119
313 314 311 307 301 299 295 290 290 291 290 285 271 259 247 239 240 242 238 237 235 238 233 228 211 198 186 176 172 169 168 166 161 157 155 155 150 146 146 141 134 126 124